User: anonymous   Login
Location: Unspecified
(0.0000°N, 0.0000°E)
Time: 23:05:19
(UTC+00:00)
Language:

ORBCOMM FM 110 - Orbit

View from above orbital plane
View from above orbital plane
View from above satellite
View from above satellite

Ground track
Ground track

The orbit is defined by the following mean orbital elements,

1 41182U          26145.16082419 +.00000000 +00000-0 +17108-3 0 00008
2 41182  47.0010 110.3134 0003761 319.8741  40.1867 14.58838006    02
Epoch (UTC): 25 May 2026 03:51:35
Eccentricity: 0.0003761
inclination: 47.0010°
perigee height: 694 km
apogee height: 700 km
right ascension of ascending node: 110.3134°
argument of perigee: 319.8741°
revolutions per day: 14.58838006
mean anomaly at epoch: 40.1867°

The dashed part of the orbit path shows where the satellite is in the earth's shadow,  

DLR